Year,Month,Day,Hour,Minute,Value (Times are PST for temperature in C)
2011,05,19,00,00,9.60
2011,05,19,00,01,9.60
2011,05,19,00,02,9.60
2011,05,19,00,03,9.60
2011,05,19,00,04,9.50
2011,05,19,00,05,9.50
2011,05,19,00,06,9.50
2011,05,19,00,07,9.40
2011,05,19,00,08,9.40
2011,05,19,00,09,9.40
2011,05,19,00,10,9.30
2011,05,19,00,11,9.30
2011,05,19,00,12,9.30
2011,05,19,00,13,9.30
2011,05,19,00,14,9.30
2011,05,19,00,15,9.30
2011,05,19,00,16,9.30
2011,05,19,00,17,9.20
2011,05,19,00,18,9.20
2011,05,19,00,19,9.20
2011,05,19,00,20,9.20
2011,05,19,00,21,9.20
2011,05,19,00,22,9.20
2011,05,19,00,23,9.20
2011,05,19,00,24,9.20
2011,05,19,00,25,9.20
2011,05,19,00,26,9.20
2011,05,19,00,27,9.20
2011,05,19,00,28,9.20
2011,05,19,00,29,9.20
2011,05,19,00,30,9.20
2011,05,19,00,31,9.20
2011,05,19,00,32,9.20
2011,05,19,00,33,9.20
2011,05,19,00,34,9.20
2011,05,19,00,35,9.20
2011,05,19,00,36,9.20
2011,05,19,00,37,9.20
2011,05,19,00,38,9.20
2011,05,19,00,39,9.20
2011,05,19,00,40,9.30
2011,05,19,00,41,9.30
2011,05,19,00,42,9.30
2011,05,19,00,43,9.30
2011,05,19,00,44,9.40
2011,05,19,00,45,9.40
2011,05,19,00,46,9.40
2011,05,19,00,47,9.40
2011,05,19,00,48,9.40
2011,05,19,00,49,9.40
2011,05,19,00,50,9.30
2011,05,19,00,51,9.30
2011,05,19,00,52,9.20
2011,05,19,00,53,9.20
2011,05,19,00,54,9.20
2011,05,19,00,55,9.10
2011,05,19,00,56,9.10
2011,05,19,00,57,9.00
2011,05,19,00,58,9.00
2011,05,19,00,59,9.00
2011,05,19,01,00,8.90
2011,05,19,01,01,8.90
2011,05,19,01,02,8.80
2011,05,19,01,03,8.80
2011,05,19,01,04,8.80
2011,05,19,01,05,8.80
2011,05,19,01,06,8.70
2011,05,19,01,07,8.70
2011,05,19,01,08,8.70
2011,05,19,01,09,8.70
2011,05,19,01,10,8.70
2011,05,19,01,11,8.70
2011,05,19,01,12,8.70
2011,05,19,01,13,8.70
2011,05,19,01,14,8.70
2011,05,19,01,15,8.70
2011,05,19,01,16,8.60
2011,05,19,01,17,8.60
2011,05,19,01,18,8.60
2011,05,19,01,19,8.60
2011,05,19,01,20,8.60
2011,05,19,01,21,8.60
2011,05,19,01,22,8.60
2011,05,19,01,23,8.60
2011,05,19,01,24,8.60
2011,05,19,01,25,8.60
2011,05,19,01,26,8.60
2011,05,19,01,27,8.60
2011,05,19,01,28,8.60
2011,05,19,01,29,8.60
2011,05,19,01,30,8.60
2011,05,19,01,31,8.60
2011,05,19,01,32,8.60
2011,05,19,01,33,8.60
2011,05,19,01,34,8.60
2011,05,19,01,35,8.60
2011,05,19,01,36,8.60
2011,05,19,01,37,8.60
2011,05,19,01,38,8.60
2011,05,19,01,39,8.50
2011,05,19,01,40,8.50
2011,05,19,01,41,8.50
2011,05,19,01,42,8.50
2011,05,19,01,43,8.50
2011,05,19,01,44,8.40
2011,05,19,01,45,8.40
2011,05,19,01,46,8.40
2011,05,19,01,47,8.40
2011,05,19,01,48,8.40
2011,05,19,01,49,8.40
2011,05,19,01,50,8.30
2011,05,19,01,51,8.30
2011,05,19,01,52,8.30
2011,05,19,01,53,8.30
2011,05,19,01,54,8.30
2011,05,19,01,55,8.20
2011,05,19,01,56,8.20
2011,05,19,01,57,8.20
2011,05,19,01,58,8.20
2011,05,19,01,59,8.20
2011,05,19,02,00,8.10
2011,05,19,02,01,8.10
2011,05,19,02,02,8.00
2011,05,19,02,03,8.00
2011,05,19,02,04,7.90
2011,05,19,02,05,7.90
2011,05,19,02,06,7.90
2011,05,19,02,07,7.90
2011,05,19,02,08,7.80
2011,05,19,02,09,7.80
2011,05,19,02,10,7.80
2011,05,19,02,11,7.80
2011,05,19,02,12,7.80
2011,05,19,02,13,7.80
2011,05,19,02,14,7.80
2011,05,19,02,15,7.80
2011,05,19,02,16,7.70
2011,05,19,02,17,7.70
2011,05,19,02,18,7.70
2011,05,19,02,19,7.60
2011,05,19,02,20,7.60
2011,05,19,02,21,7.60
2011,05,19,02,22,7.50
2011,05,19,02,23,7.50
2011,05,19,02,24,7.50
2011,05,19,02,25,7.50
2011,05,19,02,26,7.40
2011,05,19,02,27,7.40
2011,05,19,02,28,7.40
2011,05,19,02,29,7.30
2011,05,19,02,30,7.30
2011,05,19,02,31,7.30
2011,05,19,02,32,7.30
2011,05,19,02,33,7.30
2011,05,19,02,34,7.30
2011,05,19,02,35,7.30
2011,05,19,02,36,7.30
2011,05,19,02,37,7.30
2011,05,19,02,38,7.30
2011,05,19,02,39,7.20
2011,05,19,02,40,7.20
2011,05,19,02,41,7.20
2011,05,19,02,42,7.10
2011,05,19,02,43,7.10
2011,05,19,02,44,7.10
2011,05,19,02,45,7.10
2011,05,19,02,46,7.10
2011,05,19,02,47,7.10
2011,05,19,02,48,7.10
2011,05,19,02,49,7.10
2011,05,19,02,50,7.10
2011,05,19,02,51,7.00
2011,05,19,02,52,7.00
2011,05,19,02,53,7.00
2011,05,19,02,54,6.90
2011,05,19,02,55,6.90
2011,05,19,02,56,6.90
2011,05,19,02,57,6.80
2011,05,19,02,58,6.80
2011,05,19,02,59,6.80
2011,05,19,03,00,6.80
2011,05,19,03,01,6.80
2011,05,19,03,02,6.70
2011,05,19,03,03,6.70
2011,05,19,03,04,6.60
2011,05,19,03,05,6.60
2011,05,19,03,06,6.60
2011,05,19,03,07,6.60
2011,05,19,03,08,6.60
2011,05,19,03,09,6.60
2011,05,19,03,10,6.60
2011,05,19,03,11,6.40
2011,05,19,03,12,6.40
2011,05,19,03,13,6.40
2011,05,19,03,14,6.30
2011,05,19,03,15,6.30
2011,05,19,03,16,6.20
2011,05,19,03,17,6.20
2011,05,19,03,18,6.20
2011,05,19,03,19,6.10
2011,05,19,03,20,6.10
2011,05,19,03,21,6.10
2011,05,19,03,22,6.00
2011,05,19,03,23,6.00
2011,05,19,03,24,6.00
2011,05,19,03,25,5.90
2011,05,19,03,26,5.90
2011,05,19,03,27,5.90
2011,05,19,03,28,5.80
2011,05,19,03,29,5.80
2011,05,19,03,30,5.70
2011,05,19,03,31,5.70
2011,05,19,03,32,5.70
2011,05,19,03,33,5.80
2011,05,19,03,34,5.80
2011,05,19,03,35,5.80
2011,05,19,03,36,5.80
2011,05,19,03,37,5.70
2011,05,19,03,38,5.70
2011,05,19,03,39,5.70
2011,05,19,03,40,5.70
2011,05,19,03,41,5.70
2011,05,19,03,42,5.70
2011,05,19,03,43,5.70
2011,05,19,03,44,5.70
2011,05,19,03,45,5.70
2011,05,19,03,46,5.70
2011,05,19,03,47,5.70
2011,05,19,03,48,5.70
2011,05,19,03,49,5.70
2011,05,19,03,50,5.80
2011,05,19,03,51,5.80
2011,05,19,03,52,5.90
2011,05,19,03,53,5.90
2011,05,19,03,54,5.90
2011,05,19,03,55,5.90
2011,05,19,03,56,5.90
2011,05,19,03,57,6.00
2011,05,19,03,58,6.00
2011,05,19,03,59,6.10
2011,05,19,04,00,6.10
2011,05,19,04,01,6.10
2011,05,19,04,02,6.10
2011,05,19,04,03,6.10
2011,05,19,04,04,6.10
2011,05,19,04,05,6.10
2011,05,19,04,06,6.10
2011,05,19,04,07,6.10
2011,05,19,04,08,6.00
2011,05,19,04,09,6.00
2011,05,19,04,10,6.00
2011,05,19,04,11,6.00
2011,05,19,04,12,5.90
2011,05,19,04,13,5.90
2011,05,19,04,14,5.90
2011,05,19,04,15,5.90
2011,05,19,04,16,5.90
2011,05,19,04,17,5.90
2011,05,19,04,18,5.90
2011,05,19,04,19,5.90
2011,05,19,04,20,5.90
2011,05,19,04,21,5.90
2011,05,19,04,22,5.90
2011,05,19,04,23,5.90
2011,05,19,04,24,5.90
2011,05,19,04,25,5.90
2011,05,19,04,26,5.90
2011,05,19,04,27,5.90
2011,05,19,04,28,5.90
2011,05,19,04,29,5.90
2011,05,19,04,30,5.80
2011,05,19,04,31,5.80
2011,05,19,04,32,5.80
2011,05,19,04,33,5.80
2011,05,19,04,34,5.80
2011,05,19,04,35,5.80
2011,05,19,04,36,5.80
2011,05,19,04,37,5.80
2011,05,19,04,38,5.80
2011,05,19,04,39,5.80
2011,05,19,04,40,5.70
2011,05,19,04,41,5.70
2011,05,19,04,42,5.70
2011,05,19,04,43,5.70
2011,05,19,04,44,5.70
2011,05,19,04,45,5.70
2011,05,19,04,46,5.70
2011,05,19,04,47,5.70
2011,05,19,04,48,5.60
2011,05,19,04,49,5.60
2011,05,19,04,50,5.60
2011,05,19,04,51,5.60
2011,05,19,04,52,5.50
2011,05,19,04,53,5.50
2011,05,19,04,54,5.50
2011,05,19,04,55,5.50
2011,05,19,04,56,5.40
2011,05,19,04,57,5.40
2011,05,19,04,58,5.40
2011,05,19,04,59,5.40
2011,05,19,05,00,5.30
2011,05,19,05,01,5.30
2011,05,19,05,02,5.30
2011,05,19,05,03,5.30
2011,05,19,05,04,5.30
2011,05,19,05,05,5.30
2011,05,19,05,06,5.30
2011,05,19,05,07,5.30
2011,05,19,05,08,5.30
2011,05,19,05,09,5.30
2011,05,19,05,10,5.30
2011,05,19,05,11,5.30
2011,05,19,05,12,5.20
2011,05,19,05,13,5.20
2011,05,19,05,14,5.20
2011,05,19,05,15,5.10
2011,05,19,05,16,5.10
2011,05,19,05,17,5.10
2011,05,19,05,18,5.10
2011,05,19,05,19,5.00
2011,05,19,05,20,4.90
2011,05,19,05,21,4.90
2011,05,19,05,22,4.90
2011,05,19,05,23,4.80
2011,05,19,05,24,4.80
2011,05,19,05,25,4.70
2011,05,19,05,26,4.70
2011,05,19,05,27,4.60
2011,05,19,05,28,4.60
2011,05,19,05,29,4.60
2011,05,19,05,30,4.60
2011,05,19,05,31,4.60
2011,05,19,05,32,4.60
2011,05,19,05,33,4.50
2011,05,19,05,34,4.50
2011,05,19,05,35,4.50
2011,05,19,05,36,4.40
2011,05,19,05,37,4.40
2011,05,19,05,38,4.40
2011,05,19,05,39,4.40
2011,05,19,05,40,4.40
2011,05,19,05,41,4.40
2011,05,19,05,42,4.30
2011,05,19,05,43,4.30
2011,05,19,05,44,4.30
2011,05,19,05,45,4.30
2011,05,19,05,46,4.20
2011,05,19,05,47,4.30
2011,05,19,05,48,4.30
2011,05,19,05,49,4.30
2011,05,19,05,50,4.30
2011,05,19,05,51,4.30
2011,05,19,05,52,4.30
2011,05,19,05,53,4.40
2011,05,19,05,54,4.40
2011,05,19,05,55,4.40
2011,05,19,05,56,4.40
2011,05,19,05,57,4.40
2011,05,19,05,58,4.40
2011,05,19,05,59,4.50
2011,05,19,06,00,4.50
2011,05,19,06,01,4.50
2011,05,19,06,02,4.50
2011,05,19,06,03,4.50
2011,05,19,06,04,4.50
2011,05,19,06,05,4.50
2011,05,19,06,06,4.50
2011,05,19,06,07,4.60
2011,05,19,06,08,4.60
2011,05,19,06,09,4.60
2011,05,19,06,10,4.60
2011,05,19,06,11,4.70
2011,05,19,06,12,4.80
2011,05,19,06,13,4.80
2011,05,19,06,14,4.90
2011,05,19,06,15,5.00
2011,05,19,06,16,5.10
2011,05,19,06,17,5.10
2011,05,19,06,18,5.10
2011,05,19,06,19,5.10
2011,05,19,06,20,5.10
2011,05,19,06,21,5.20
2011,05,19,06,22,5.20
2011,05,19,06,23,5.20
2011,05,19,06,24,5.20
2011,05,19,06,25,5.20
2011,05,19,06,26,5.20
2011,05,19,06,27,5.30
2011,05,19,06,28,5.30
2011,05,19,06,29,5.30
2011,05,19,06,30,5.30
2011,05,19,06,31,5.40
2011,05,19,06,32,5.40
2011,05,19,06,33,5.40
2011,05,19,06,34,5.50
2011,05,19,06,35,5.50
2011,05,19,06,36,5.50
2011,05,19,06,37,5.50
2011,05,19,06,38,5.60
2011,05,19,06,39,5.60
2011,05,19,06,40,5.70
2011,05,19,06,41,5.70
2011,05,19,06,42,5.70
2011,05,19,06,43,5.80
2011,05,19,06,44,5.80
2011,05,19,06,45,5.90
2011,05,19,06,46,5.90
2011,05,19,06,47,5.90
2011,05,19,06,48,6.00
2011,05,19,06,49,6.00
2011,05,19,06,50,6.00
2011,05,19,06,51,6.00
2011,05,19,06,52,6.00
2011,05,19,06,53,6.10
2011,05,19,06,54,6.10
2011,05,19,06,55,6.20
2011,05,19,06,56,6.20
2011,05,19,06,57,6.20
2011,05,19,06,58,6.20
2011,05,19,06,59,6.20
2011,05,19,07,00,6.20
2011,05,19,07,01,6.30
2011,05,19,07,02,6.30
2011,05,19,07,03,6.40
2011,05,19,07,04,6.40
2011,05,19,07,05,6.50
2011,05,19,07,06,6.60
2011,05,19,07,07,6.70
2011,05,19,07,08,6.70
2011,05,19,07,09,6.80
2011,05,19,07,10,6.90
2011,05,19,07,11,7.00
2011,05,19,07,12,7.00
2011,05,19,07,13,7.10
2011,05,19,07,14,7.20
2011,05,19,07,15,7.20
2011,05,19,07,16,7.30
2011,05,19,07,17,7.30
2011,05,19,07,18,7.30
2011,05,19,07,19,7.40
2011,05,19,07,20,7.50
2011,05,19,07,21,7.50
2011,05,19,07,22,7.60
2011,05,19,07,23,7.60
2011,05,19,07,24,7.60
2011,05,19,07,25,7.60
2011,05,19,07,26,7.70
2011,05,19,07,27,7.70
2011,05,19,07,28,7.70
2011,05,19,07,29,7.80
2011,05,19,07,30,7.80
2011,05,19,07,31,7.80
2011,05,19,07,32,7.90
2011,05,19,07,33,8.00
2011,05,19,07,34,8.00
2011,05,19,07,35,8.10
2011,05,19,07,36,8.20
2011,05,19,07,37,8.40
2011,05,19,07,38,8.60
2011,05,19,07,39,8.70
2011,05,19,07,40,8.90
2011,05,19,07,41,9.10
2011,05,19,07,42,9.20
2011,05,19,07,43,9.40
2011,05,19,07,44,9.50
2011,05,19,07,45,9.60
2011,05,19,07,46,9.70
2011,05,19,07,47,9.80
2011,05,19,07,48,9.90
2011,05,19,07,49,10.10
2011,05,19,07,50,10.20
2011,05,19,07,51,10.20
2011,05,19,07,52,10.30
2011,05,19,07,53,10.40
2011,05,19,07,54,10.50
2011,05,19,07,55,10.60
2011,05,19,07,56,10.70
2011,05,19,07,57,10.80
2011,05,19,07,58,10.90
2011,05,19,07,59,10.90
2011,05,19,08,00,11.00
2011,05,19,08,01,11.10
2011,05,19,08,02,11.20
2011,05,19,08,03,11.30
2011,05,19,08,04,11.40
2011,05,19,08,05,11.40
2011,05,19,08,06,11.40
2011,05,19,08,07,11.60
2011,05,19,08,08,11.60
2011,05,19,08,09,11.70
2011,05,19,08,10,11.80
2011,05,19,08,11,11.80
2011,05,19,08,12,11.80
2011,05,19,08,13,11.80
2011,05,19,08,14,11.70
2011,05,19,08,15,11.60
2011,05,19,08,16,11.60
2011,05,19,08,17,11.60
2011,05,19,08,18,11.60
2011,05,19,08,19,11.60
2011,05,19,08,20,11.60
2011,05,19,08,21,11.60
2011,05,19,08,22,11.70
2011,05,19,08,23,11.70
2011,05,19,08,24,11.70
2011,05,19,08,25,11.70
2011,05,19,08,26,11.80
2011,05,19,08,27,11.80
2011,05,19,08,28,11.80
2011,05,19,08,29,11.80
2011,05,19,08,30,11.80
2011,05,19,08,31,11.80
2011,05,19,08,32,11.80
2011,05,19,08,33,11.80
2011,05,19,08,34,11.80
2011,05,19,08,35,11.90
2011,05,19,08,36,11.90
2011,05,19,08,37,12.00
2011,05,19,08,38,12.00
2011,05,19,08,39,12.00
2011,05,19,08,40,12.00
2011,05,19,08,41,12.00
2011,05,19,08,42,12.10
2011,05,19,08,43,12.20
2011,05,19,08,44,12.30
2011,05,19,08,45,12.30
2011,05,19,08,46,12.40
2011,05,19,08,47,12.50
2011,05,19,08,48,12.50
2011,05,19,08,49,12.50
2011,05,19,08,50,12.50
2011,05,19,08,51,12.60
2011,05,19,08,52,12.70
2011,05,19,08,53,12.80
2011,05,19,08,54,12.80
2011,05,19,08,55,12.90
2011,05,19,08,56,13.00
2011,05,19,08,57,13.00
2011,05,19,08,58,13.10
2011,05,19,08,59,13.10
2011,05,19,09,00,13.10
2011,05,19,09,01,13.10
2011,05,19,09,02,13.10
2011,05,19,09,03,13.10
2011,05,19,09,04,13.20
2011,05,19,09,05,13.30
2011,05,19,09,06,13.30
2011,05,19,09,07,13.40
2011,05,19,09,08,13.40
2011,05,19,09,09,13.50
2011,05,19,09,10,13.50
2011,05,19,09,11,13.60
2011,05,19,09,12,13.70
2011,05,19,09,13,13.70
2011,05,19,09,14,13.80
2011,05,19,09,15,13.80
2011,05,19,09,16,13.80
2011,05,19,09,17,13.90
2011,05,19,09,18,13.90
2011,05,19,09,19,13.90
2011,05,19,09,20,13.90
2011,05,19,09,21,13.90
2011,05,19,09,22,14.00
2011,05,19,09,23,14.00
2011,05,19,09,24,14.10
2011,05,19,09,25,14.10
2011,05,19,09,26,14.10
2011,05,19,09,27,14.20
2011,05,19,09,28,14.30
2011,05,19,09,29,14.40
2011,05,19,09,30,14.40
2011,05,19,09,31,14.40
2011,05,19,09,32,14.30
2011,05,19,09,33,14.20
2011,05,19,09,34,14.10
2011,05,19,09,35,14.00
2011,05,19,09,36,13.90
2011,05,19,09,37,13.90
2011,05,19,09,38,13.90
2011,05,19,09,39,13.90
2011,05,19,09,40,13.90
2011,05,19,09,41,13.80
2011,05,19,09,42,13.70
2011,05,19,09,43,13.80
2011,05,19,09,44,13.80
2011,05,19,09,45,13.90
2011,05,19,09,46,14.00
2011,05,19,09,47,14.00
2011,05,19,09,48,13.90
2011,05,19,09,49,13.90
2011,05,19,09,50,13.80
2011,05,19,09,51,13.70
2011,05,19,09,52,13.60
2011,05,19,09,53,13.60
2011,05,19,09,54,13.60
2011,05,19,09,55,13.60
2011,05,19,09,56,13.60
2011,05,19,09,57,13.70
2011,05,19,09,58,13.60
2011,05,19,09,59,13.50
2011,05,19,10,00,13.50
2011,05,19,10,01,13.60
2011,05,19,10,02,13.60
2011,05,19,10,03,13.70
2011,05,19,10,04,13.80
2011,05,19,10,05,13.90
2011,05,19,10,06,13.90
2011,05,19,10,07,13.90
2011,05,19,10,08,13.80
2011,05,19,10,09,13.70
2011,05,19,10,10,13.70
2011,05,19,10,11,13.70
2011,05,19,10,12,13.70
2011,05,19,10,13,13.70
2011,05,19,10,14,13.70
2011,05,19,10,15,13.60
2011,05,19,10,16,13.50
2011,05,19,10,17,13.30
2011,05,19,10,18,13.30
2011,05,19,10,19,13.40
2011,05,19,10,20,13.50
2011,05,19,10,21,13.50
2011,05,19,10,22,13.60
2011,05,19,10,23,13.70
2011,05,19,10,24,13.70
2011,05,19,10,25,13.70
2011,05,19,10,26,13.70
2011,05,19,10,27,13.70
2011,05,19,10,28,13.70
2011,05,19,10,29,13.80
2011,05,19,10,30,14.00
2011,05,19,10,31,14.00
2011,05,19,10,32,14.00
2011,05,19,10,33,14.10
2011,05,19,10,34,14.10
2011,05,19,10,35,14.10
2011,05,19,10,36,14.10
2011,05,19,10,37,14.00
2011,05,19,10,38,14.10
2011,05,19,10,39,14.20
2011,05,19,10,40,14.40
2011,05,19,10,41,14.40
2011,05,19,10,42,14.20
2011,05,19,10,43,14.10
2011,05,19,10,44,14.00
2011,05,19,10,45,14.00
2011,05,19,10,46,14.10
2011,05,19,10,47,14.20
2011,05,19,10,48,14.40
2011,05,19,10,49,14.60
2011,05,19,10,50,14.70
2011,05,19,10,51,14.80
2011,05,19,10,52,14.80
2011,05,19,10,53,14.80
2011,05,19,10,54,14.80
2011,05,19,10,55,14.80
2011,05,19,10,56,14.80
2011,05,19,10,57,14.80
2011,05,19,10,58,14.80
2011,05,19,10,59,14.70
2011,05,19,11,00,14.80
2011,05,19,11,01,14.70
2011,05,19,11,02,14.50
2011,05,19,11,03,14.40
2011,05,19,11,04,14.30
2011,05,19,11,05,14.20
2011,05,19,11,06,14.20
2011,05,19,11,07,14.20
2011,05,19,11,08,14.30
2011,05,19,11,09,14.40
2011,05,19,11,10,14.50
2011,05,19,11,11,14.70
2011,05,19,11,12,14.80
2011,05,19,11,13,14.80
2011,05,19,11,14,14.90
2011,05,19,11,15,14.70
2011,05,19,11,16,14.70
2011,05,19,11,17,14.60
2011,05,19,11,18,14.50
2011,05,19,11,19,14.40
2011,05,19,11,20,14.40
2011,05,19,11,21,14.40
2011,05,19,11,22,14.30
2011,05,19,11,23,14.30
2011,05,19,11,24,14.20
2011,05,19,11,25,14.20
2011,05,19,11,26,14.10
2011,05,19,11,27,14.10
2011,05,19,11,28,14.10
2011,05,19,11,29,14.20
2011,05,19,11,30,14.20
2011,05,19,11,31,14.20
2011,05,19,11,32,14.20
2011,05,19,11,33,14.20
2011,05,19,11,34,14.30
2011,05,19,11,35,14.30
2011,05,19,11,36,14.30
2011,05,19,11,37,14.20
2011,05,19,11,38,14.10
2011,05,19,11,39,14.00
2011,05,19,11,40,13.90
2011,05,19,11,41,13.70
2011,05,19,11,42,13.70
2011,05,19,11,43,13.70
2011,05,19,11,44,13.80
2011,05,19,11,45,13.80
2011,05,19,11,46,13.80
2011,05,19,11,47,13.70
2011,05,19,11,48,13.80
2011,05,19,11,49,14.00
2011,05,19,11,50,14.10
2011,05,19,11,51,14.10
2011,05,19,11,52,14.20
2011,05,19,11,53,14.20
2011,05,19,11,54,14.20
2011,05,19,11,55,14.40
2011,05,19,11,56,14.30
2011,05,19,11,57,14.20
2011,05,19,11,58,14.30
2011,05,19,11,59,14.30
2011,05,19,12,00,14.40
2011,05,19,12,01,14.50
2011,05,19,12,02,14.70
2011,05,19,12,03,14.90
2011,05,19,12,04,14.90
2011,05,19,12,05,14.80
2011,05,19,12,06,14.70
2011,05,19,12,07,14.70
2011,05,19,12,08,14.80
2011,05,19,12,09,15.00
2011,05,19,12,10,15.00
2011,05,19,12,11,14.90
2011,05,19,12,12,15.00
2011,05,19,12,13,15.10
2011,05,19,12,14,15.10
2011,05,19,12,15,15.10
2011,05,19,12,16,15.00
2011,05,19,12,17,15.00
2011,05,19,12,18,14.90
2011,05,19,12,19,14.80
2011,05,19,12,20,14.80
2011,05,19,12,21,14.80
2011,05,19,12,22,14.80
2011,05,19,12,23,14.90
2011,05,19,12,24,14.80
2011,05,19,12,25,14.80
2011,05,19,12,26,14.70
2011,05,19,12,27,14.70
2011,05,19,12,28,14.70
2011,05,19,12,29,14.70
2011,05,19,12,30,14.70
2011,05,19,12,31,14.80
2011,05,19,12,32,14.90
2011,05,19,12,33,14.90
2011,05,19,12,34,14.80
2011,05,19,12,35,14.90
2011,05,19,12,36,14.90
2011,05,19,12,37,15.00
2011,05,19,12,38,15.10
2011,05,19,12,39,15.10
2011,05,19,12,40,15.10
2011,05,19,12,41,15.00
2011,05,19,12,42,15.00
2011,05,19,12,43,15.00
2011,05,19,12,44,14.90
2011,05,19,12,45,14.60
2011,05,19,12,46,14.30
2011,05,19,12,47,14.20
2011,05,19,12,48,14.10
2011,05,19,12,49,14.00
2011,05,19,12,50,13.80
2011,05,19,12,51,13.70
2011,05,19,12,52,13.60
2011,05,19,12,53,13.50
2011,05,19,12,54,13.40
2011,05,19,12,55,13.30
2011,05,19,12,56,13.30
2011,05,19,12,57,13.30
2011,05,19,12,58,13.30
2011,05,19,12,59,13.30
2011,05,19,13,00,13.30
2011,05,19,13,01,13.40
2011,05,19,13,02,13.50
2011,05,19,13,03,13.70
2011,05,19,13,04,13.70
2011,05,19,13,05,13.70
2011,05,19,13,06,13.70
2011,05,19,13,07,13.70
2011,05,19,13,08,13.80
2011,05,19,13,09,13.80
2011,05,19,13,10,13.90
2011,05,19,13,11,14.00
2011,05,19,13,12,14.00
2011,05,19,13,13,14.10
2011,05,19,13,14,14.10
2011,05,19,13,15,13.90
2011,05,19,13,16,13.90
2011,05,19,13,17,14.00
2011,05,19,13,18,14.00
2011,05,19,13,19,14.00
2011,05,19,13,20,13.90
2011,05,19,13,21,13.90
2011,05,19,13,22,14.00
2011,05,19,13,23,14.00
2011,05,19,13,24,13.90
2011,05,19,13,25,13.80
2011,05,19,13,26,13.70
2011,05,19,13,27,13.90
2011,05,19,13,28,14.00
2011,05,19,13,29,14.10
2011,05,19,13,30,14.20
2011,05,19,13,31,14.20
2011,05,19,13,32,14.30
2011,05,19,13,33,14.30
2011,05,19,13,34,14.40
2011,05,19,13,35,14.40
2011,05,19,13,36,14.40
2011,05,19,13,37,14.30
2011,05,19,13,38,14.20
2011,05,19,13,39,14.30
2011,05,19,13,40,14.40
2011,05,19,13,41,14.40
2011,05,19,13,42,14.40
2011,05,19,13,43,14.20
2011,05,19,13,44,14.20
2011,05,19,13,45,14.20
2011,05,19,13,46,14.20
2011,05,19,13,47,14.20
2011,05,19,13,48,14.30
2011,05,19,13,49,14.50
2011,05,19,13,50,14.60
2011,05,19,13,51,14.70
2011,05,19,13,52,14.70
2011,05,19,13,53,14.80
2011,05,19,13,54,14.80
2011,05,19,13,55,14.80
2011,05,19,13,56,15.00
2011,05,19,13,57,15.20
2011,05,19,13,58,15.30
2011,05,19,13,59,15.40
2011,05,19,14,00,15.50
2011,05,19,14,01,15.50
2011,05,19,14,02,15.40
2011,05,19,14,03,15.40
2011,05,19,14,04,15.40
2011,05,19,14,05,15.40
2011,05,19,14,06,15.50
2011,05,19,14,07,15.60
2011,05,19,14,08,15.70
2011,05,19,14,09,15.70
2011,05,19,14,10,15.70
2011,05,19,14,11,15.70
2011,05,19,14,12,15.70
2011,05,19,14,13,15.70
2011,05,19,14,14,15.70
2011,05,19,14,15,15.70
2011,05,19,14,16,15.80
2011,05,19,14,17,15.90
2011,05,19,14,18,16.10
2011,05,19,14,19,16.20
2011,05,19,14,20,16.30
2011,05,19,14,21,16.30
2011,05,19,14,22,16.20
2011,05,19,14,23,16.00
2011,05,19,14,24,15.80
2011,05,19,14,25,15.80
2011,05,19,14,26,15.80
2011,05,19,14,27,15.70
2011,05,19,14,28,15.40
2011,05,19,14,29,15.30
2011,05,19,14,30,15.20
2011,05,19,14,31,15.20
2011,05,19,14,32,15.30
2011,05,19,14,33,15.30
2011,05,19,14,34,15.50
2011,05,19,14,35,15.60
2011,05,19,14,36,15.60
2011,05,19,14,37,15.60
2011,05,19,14,38,15.40
2011,05,19,14,39,15.30
2011,05,19,14,40,15.30
2011,05,19,14,41,15.20
2011,05,19,14,42,15.30
2011,05,19,14,43,15.50
2011,05,19,14,44,15.60
2011,05,19,14,45,15.60
2011,05,19,14,46,15.70
2011,05,19,14,47,15.60
2011,05,19,14,48,15.60
2011,05,19,14,49,15.60
2011,05,19,14,50,15.70
2011,05,19,14,51,15.70
2011,05,19,14,52,15.60
2011,05,19,14,53,15.50
2011,05,19,14,54,15.40
2011,05,19,14,55,15.50
2011,05,19,14,56,15.60
2011,05,19,14,57,15.80
2011,05,19,14,58,15.90
2011,05,19,14,59,15.90
2011,05,19,15,00,15.80
2011,05,19,15,01,15.80
2011,05,19,15,02,15.80
2011,05,19,15,03,15.90
2011,05,19,15,04,16.10
2011,05,19,15,05,16.10
2011,05,19,15,06,16.00
2011,05,19,15,07,15.90
2011,05,19,15,08,15.80
2011,05,19,15,09,15.80
2011,05,19,15,10,15.70
2011,05,19,15,11,15.70
2011,05,19,15,12,15.80
2011,05,19,15,13,15.80
2011,05,19,15,14,15.80
2011,05,19,15,15,15.80
2011,05,19,15,16,15.80
2011,05,19,15,17,15.80
2011,05,19,15,18,15.80
2011,05,19,15,19,15.80
2011,05,19,15,20,15.90
2011,05,19,15,21,16.00
2011,05,19,15,22,16.10
2011,05,19,15,23,16.10
2011,05,19,15,24,16.30
2011,05,19,15,25,16.40
2011,05,19,15,26,16.40
2011,05,19,15,27,16.40
2011,05,19,15,28,16.40
2011,05,19,15,29,16.40
2011,05,19,15,30,16.30
2011,05,19,15,31,16.40
2011,05,19,15,32,16.40
2011,05,19,15,33,16.40
2011,05,19,15,34,16.40
2011,05,19,15,35,16.40
2011,05,19,15,36,16.40
2011,05,19,15,37,16.50
2011,05,19,15,38,16.60
2011,05,19,15,39,16.60
2011,05,19,15,40,16.70
2011,05,19,15,41,16.60
2011,05,19,15,42,16.60
2011,05,19,15,43,16.60
2011,05,19,15,44,16.40
2011,05,19,15,45,16.40
2011,05,19,15,46,16.50
2011,05,19,15,47,16.60
2011,05,19,15,48,16.60
2011,05,19,15,49,16.80
2011,05,19,15,50,16.90
2011,05,19,15,51,17.00
2011,05,19,15,52,17.00
2011,05,19,15,53,17.10
2011,05,19,15,54,17.20
2011,05,19,15,55,17.30
2011,05,19,15,56,17.30
2011,05,19,15,57,17.30
2011,05,19,15,58,17.50
2011,05,19,15,59,17.60
2011,05,19,16,00,17.60
2011,05,19,16,01,17.70
2011,05,19,16,02,17.90
2011,05,19,16,03,17.90
2011,05,19,16,04,17.90
2011,05,19,16,05,17.90
2011,05,19,16,06,17.90
2011,05,19,16,07,17.90
2011,05,19,16,08,17.90
2011,05,19,16,09,18.00
2011,05,19,16,10,18.10
2011,05,19,16,11,18.00
2011,05,19,16,12,17.90
2011,05,19,16,13,17.90
2011,05,19,16,14,17.90
2011,05,19,16,15,17.90
2011,05,19,16,16,17.90
2011,05,19,16,17,18.00
2011,05,19,16,18,18.10
2011,05,19,16,19,18.10
2011,05,19,16,20,18.10
2011,05,19,16,21,18.10
2011,05,19,16,22,18.10
2011,05,19,16,23,18.20
2011,05,19,16,24,18.20
2011,05,19,16,25,18.20
2011,05,19,16,26,18.20
2011,05,19,16,27,18.10
2011,05,19,16,28,18.10
2011,05,19,16,29,18.10
2011,05,19,16,30,18.20
2011,05,19,16,31,18.20
2011,05,19,16,32,18.30
2011,05,19,16,33,18.20
2011,05,19,16,34,18.20
2011,05,19,16,35,18.10
2011,05,19,16,36,18.00
2011,05,19,16,37,18.10
2011,05,19,16,38,18.20
2011,05,19,16,39,18.20
2011,05,19,16,40,18.30
2011,05,19,16,41,18.30
2011,05,19,16,42,18.40
2011,05,19,16,43,18.50
2011,05,19,16,44,18.60
2011,05,19,16,45,18.70
2011,05,19,16,46,18.80
2011,05,19,16,47,18.90
2011,05,19,16,48,19.00
2011,05,19,16,49,19.10
2011,05,19,16,50,19.20
2011,05,19,16,51,19.40
2011,05,19,16,52,19.50
2011,05,19,16,53,19.60
2011,05,19,16,54,19.70
2011,05,19,16,55,19.70
2011,05,19,16,56,19.70
2011,05,19,16,57,19.60
2011,05,19,16,58,19.40
2011,05,19,16,59,19.30
2011,05,19,17,00,19.10
2011,05,19,17,01,19.10
2011,05,19,17,02,19.10
2011,05,19,17,03,19.10
2011,05,19,17,04,19.00
2011,05,19,17,05,18.90
2011,05,19,17,06,18.90
2011,05,19,17,07,19.00
2011,05,19,17,08,19.10
2011,05,19,17,09,19.10
2011,05,19,17,10,19.10
2011,05,19,17,11,19.10
2011,05,19,17,12,19.10
2011,05,19,17,13,19.10
2011,05,19,17,14,19.10
2011,05,19,17,15,18.90
2011,05,19,17,16,18.90
2011,05,19,17,17,18.90
2011,05,19,17,18,18.90
2011,05,19,17,19,18.90
2011,05,19,17,20,18.70
2011,05,19,17,21,18.70
2011,05,19,17,22,18.80
2011,05,19,17,23,18.90
2011,05,19,17,24,18.80
2011,05,19,17,25,18.80
2011,05,19,17,26,18.80
2011,05,19,17,27,18.80
2011,05,19,17,28,18.90
2011,05,19,17,29,19.00
2011,05,19,17,30,19.10
2011,05,19,17,31,19.10
2011,05,19,17,32,19.00
2011,05,19,17,33,18.90
2011,05,19,17,34,19.00
2011,05,19,17,35,18.90
2011,05,19,17,36,18.90
2011,05,19,17,37,18.90
2011,05,19,17,38,18.90
2011,05,19,17,39,18.80